Time,TemperatureF,DewpointF,PressureIn,WindDirection,WindDirectionDegrees,WindSpeedMPH,WindSpeedGustMPH,Humidity,HourlyPrecipIn,Conditions,Clouds,dailyrainin,SoftwareType,DateUTC
2017-04-30 00:03:00,66.9,57.6,30.07,North,5,0.0,0.0,72,0.00,,,0.00,meteobridge,2017-04-30 04:03:00,
2017-04-30 00:08:00,66.7,57.4,30.07,North,5,0.0,0.0,72,0.00,,,0.00,meteobridge,2017-04-30 04:08:00,
2017-04-30 00:14:00,66.6,57.2,30.07,North,5,0.0,0.0,72,0.00,,,0.00,meteobridge,2017-04-30 04:14:00,
2017-04-30 00:19:00,66.6,57.2,30.08,North,5,0.0,0.0,72,0.00,,,0.00,meteobridge,2017-04-30 04:19:00,
2017-04-30 00:25:00,66.4,57.4,30.08,North,5,0.0,0.0,73,0.00,,,0.00,meteobridge,2017-04-30 04:25:00,
2017-04-30 00:30:00,66.4,57.4,30.08,North,5,0.0,0.0,73,0.00,,,0.00,meteobridge,2017-04-30 04:30:00,
2017-04-30 00:35:00,66.0,57.2,30.08,North,5,0.0,0.0,73,0.00,,,0.00,meteobridge,2017-04-30 04:35:00,
2017-04-30 00:40:00,66.0,57.2,30.08,North,5,0.0,0.0,73,0.00,,,0.00,meteobridge,2017-04-30 04:40:00,
2017-04-30 00:45:00,65.8,57.0,30.08,North,5,0.0,0.0,73,0.00,,,0.00,meteobridge,2017-04-30 04:45:00,
2017-04-30 00:51:00,65.8,57.0,30.08,North,5,0.0,0.0,73,0.00,,,0.00,meteobridge,2017-04-30 04:51:00,
2017-04-30 00:56:00,65.7,56.8,30.08,North,5,0.0,0.0,73,0.00,,,0.00,meteobridge,2017-04-30 04:56:00,
2017-04-30 01:01:00,65.5,56.7,30.08,North,5,0.0,0.0,73,0.00,,,0.00,meteobridge,2017-04-30 05:01:00,
2017-04-30 01:06:00,65.1,56.7,30.08,North,5,0.0,0.0,74,0.00,,,0.00,meteobridge,2017-04-30 05:06:00,
2017-04-30 01:12:00,64.9,56.1,30.08,North,5,0.0,0.0,73,0.00,,,0.00,meteobridge,2017-04-30 05:12:00,
2017-04-30 01:17:00,64.8,56.3,30.09,North,5,0.0,0.0,74,0.00,,,0.00,meteobridge,2017-04-30 05:17:00,
2017-04-30 01:22:00,64.2,56.1,30.09,North,5,0.0,0.0,75,0.00,,,0.00,meteobridge,2017-04-30 05:22:00,
2017-04-30 01:28:00,63.7,55.9,30.08,North,5,0.0,0.0,76,0.00,,,0.00,meteobridge,2017-04-30 05:28:00,
2017-04-30 01:33:00,63.7,55.9,30.08,North,5,0.0,0.0,76,0.00,,,0.00,meteobridge,2017-04-30 05:33:00,
2017-04-30 01:38:00,63.7,55.9,30.09,North,5,0.0,0.0,76,0.00,,,0.00,meteobridge,2017-04-30 05:38:00,
2017-04-30 01:43:00,63.9,56.1,30.09,North,5,0.0,0.0,76,0.00,,,0.00,meteobridge,2017-04-30 05:43:00,
2017-04-30 01:49:00,63.9,56.1,30.09,North,5,0.0,0.0,76,0.00,,,0.00,meteobridge,2017-04-30 05:49:00,
2017-04-30 01:54:00,63.9,56.1,30.09,North,5,0.0,0.0,76,0.00,,,0.00,meteobridge,2017-04-30 05:54:00,
2017-04-30 01:59:00,63.9,56.1,30.09,North,5,0.0,0.0,76,0.00,,,0.00,meteobridge,2017-04-30 05:59:00,
2017-04-30 02:05:00,63.9,56.1,30.09,North,5,0.0,0.0,76,0.00,,,0.00,meteobridge,2017-04-30 06:05:00,
2017-04-30 02:10:00,63.9,56.1,30.09,North,5,0.0,0.0,76,0.00,,,0.00,meteobridge,2017-04-30 06:10:00,
2017-04-30 02:15:00,63.9,56.1,30.09,North,5,0.0,0.0,76,0.00,,,0.00,meteobridge,2017-04-30 06:15:00,
2017-04-30 02:20:00,63.7,55.9,30.09,North,5,0.0,0.0,76,0.00,,,0.00,meteobridge,2017-04-30 06:20:00,
2017-04-30 02:25:00,63.7,55.9,30.09,North,5,0.0,0.0,76,0.00,,,0.00,meteobridge,2017-04-30 06:25:00,
2017-04-30 02:30:00,63.5,55.8,30.09,North,5,0.0,0.0,76,0.00,,,0.00,meteobridge,2017-04-30 06:30:00,
2017-04-30 02:35:00,63.5,55.8,30.09,North,5,0.0,0.0,76,0.00,,,0.00,meteobridge,2017-04-30 06:35:00,
2017-04-30 02:41:00,63.7,55.6,30.10,North,5,0.0,0.0,75,0.00,,,0.00,meteobridge,2017-04-30 06:41:00,
2017-04-30 02:46:00,63.7,55.6,30.10,North,5,0.0,0.0,75,0.00,,,0.00,meteobridge,2017-04-30 06:46:00,
2017-04-30 02:51:00,63.7,55.6,30.10,North,5,0.0,0.0,75,0.00,,,0.00,meteobridge,2017-04-30 06:51:00,
2017-04-30 02:56:00,63.3,55.2,30.10,North,5,0.0,0.0,75,0.00,,,0.00,meteobridge,2017-04-30 06:56:00,
2017-04-30 03:01:00,63.1,54.7,30.10,North,5,0.0,0.0,74,0.00,,,0.00,meteobridge,2017-04-30 07:01:00,
2017-04-30 03:07:00,63.1,54.7,30.10,North,5,0.0,0.0,74,0.00,,,0.00,meteobridge,2017-04-30 07:07:00,
2017-04-30 03:12:00,63.1,54.3,30.10,North,5,0.0,0.0,73,0.00,,,0.00,meteobridge,2017-04-30 07:12:00,
2017-04-30 03:17:00,63.0,53.8,30.11,North,5,0.0,0.0,72,0.00,,,0.00,meteobridge,2017-04-30 07:17:00,
2017-04-30 03:23:00,62.8,52.9,30.11,North,5,0.0,0.0,70,0.00,,,0.00,meteobridge,2017-04-30 07:23:00,
2017-04-30 03:28:00,62.8,52.5,30.11,North,5,0.0,0.0,69,0.00,,,0.00,meteobridge,2017-04-30 07:28:00,
2017-04-30 03:33:00,62.4,51.8,30.11,North,5,0.0,0.0,68,0.00,,,0.00,meteobridge,2017-04-30 07:33:00,
2017-04-30 03:38:00,62.2,50.7,30.11,North,5,0.0,0.0,66,0.00,,,0.00,meteobridge,2017-04-30 07:38:00,
2017-04-30 03:43:00,62.1,49.8,30.11,North,5,0.0,0.0,64,0.00,,,0.00,meteobridge,2017-04-30 07:43:00,
2017-04-30 03:49:00,61.9,48.7,30.12,North,10,0.0,0.0,62,0.00,,,0.00,meteobridge,2017-04-30 07:49:00,
2017-04-30 03:54:00,61.5,48.4,30.11,North,11,0.0,0.0,62,0.00,,,0.00,meteobridge,2017-04-30 07:54:00,
2017-04-30 03:59:00,61.3,47.3,30.11,NNE,13,0.0,0.0,60,0.00,,,0.00,meteobridge,2017-04-30 07:59:00,
2017-04-30 04:04:00,61.2,46.8,30.12,NNE,14,0.0,0.0,59,0.00,,,0.00,meteobridge,2017-04-30 08:04:00,
2017-04-30 04:09:00,61.0,46.6,30.13,NNE,14,0.0,0.0,59,0.00,,,0.00,meteobridge,2017-04-30 08:09:00,
2017-04-30 04:14:00,60.6,45.7,30.12,NNE,17,0.0,0.0,58,0.00,,,0.00,meteobridge,2017-04-30 08:14:00,
2017-04-30 04:20:00,60.3,45.5,30.12,NNE,21,0.0,0.0,58,0.00,,,0.00,meteobridge,2017-04-30 08:20:00,
2017-04-30 04:25:00,59.9,44.6,30.13,NNE,22,0.0,0.0,57,0.00,,,0.00,meteobridge,2017-04-30 08:25:00,
2017-04-30 04:30:00,59.5,44.2,30.13,NNE,30,0.0,0.0,57,0.00,,,0.00,meteobridge,2017-04-30 08:30:00,
2017-04-30 04:35:00,59.4,43.7,30.13,NNE,30,0.0,0.0,56,0.00,,,0.00,meteobridge,2017-04-30 08:35:00,
2017-04-30 04:40:00,59.0,43.3,30.14,NNE,30,0.0,0.0,56,0.00,,,0.00,meteobridge,2017-04-30 08:40:00,
2017-04-30 04:45:00,58.8,42.6,30.14,NNE,30,0.0,0.0,55,0.00,,,0.00,meteobridge,2017-04-30 08:45:00,
2017-04-30 04:50:00,58.6,42.4,30.14,NNE,30,0.0,0.0,55,0.00,,,0.00,meteobridge,2017-04-30 08:50:00,
2017-04-30 04:52:00,58.6,42.4,30.14,NNE,30,0.0,0.0,55,0.00,,,0.00,meteobridge,2017-04-30 08:52:00,
2017-04-30 04:57:00,58.5,41.9,30.14,NNE,30,0.0,0.0,54,0.00,,,0.00,meteobridge,2017-04-30 08:57:00,
2017-04-30 05:02:00,58.3,42.3,30.14,NNE,30,0.0,0.0,55,0.00,,,0.00,meteobridge,2017-04-30 09:02:00,
2017-04-30 05:08:00,58.1,41.5,30.14,NNE,30,0.0,0.0,54,0.00,,,0.00,meteobridge,2017-04-30 09:08:00,
2017-04-30 05:13:00,57.9,41.4,30.14,NNE,31,0.0,0.0,54,0.00,,,0.00,meteobridge,2017-04-30 09:13:00,
2017-04-30 05:18:00,57.7,41.2,30.14,NNE,31,0.0,0.0,54,0.00,,,0.00,meteobridge,2017-04-30 09:18:00,
2017-04-30 05:23:00,57.7,41.2,30.14,NNE,31,0.0,0.0,54,0.00,,,0.00,meteobridge,2017-04-30 09:23:00,
2017-04-30 05:28:00,57.6,41.0,30.14,NNE,30,0.0,0.0,54,0.00,,,0.00,meteobridge,2017-04-30 09:28:00,
2017-04-30 05:33:00,57.6,41.5,30.15,NNE,30,0.0,0.0,55,0.00,,,0.00,meteobridge,2017-04-30 09:33:00,
2017-04-30 05:38:00,57.6,41.0,30.15,NNE,30,0.0,0.0,54,0.00,,,0.00,meteobridge,2017-04-30 09:38:00,
2017-04-30 05:44:00,57.4,40.8,30.16,NNE,30,0.0,0.0,54,0.00,,,0.00,meteobridge,2017-04-30 09:44:00,
2017-04-30 05:49:00,57.2,40.6,30.16,NNE,30,0.0,0.0,54,0.00,,,0.00,meteobridge,2017-04-30 09:49:00,
2017-04-30 05:54:00,57.2,40.6,30.16,NNE,30,0.0,0.0,54,0.00,,,0.00,meteobridge,2017-04-30 09:54:00,
2017-04-30 05:59:00,57.4,40.8,30.16,NNE,30,0.0,0.0,54,0.00,,,0.00,meteobridge,2017-04-30 09:59:00,
2017-04-30 06:04:00,57.4,40.8,30.16,NNE,30,0.0,0.0,54,0.00,,,0.00,meteobridge,2017-04-30 10:04:00,
2017-04-30 06:10:00,57.4,40.8,30.17,NNE,32,0.0,0.0,54,0.00,,,0.00,meteobridge,2017-04-30 10:10:00,
2017-04-30 06:15:00,57.6,41.0,30.17,NNE,32,0.0,0.0,54,0.00,,,0.00,meteobridge,2017-04-30 10:15:00,
2017-04-30 06:20:00,57.6,41.5,30.17,NNE,32,0.0,0.0,55,0.00,,,0.00,meteobridge,2017-04-30 10:20:00,
2017-04-30 06:25:00,57.6,41.5,30.17,NNE,33,0.0,0.0,55,0.00,,,0.00,meteobridge,2017-04-30 10:25:00,
2017-04-30 06:30:00,57.4,41.9,30.17,NNE,32,0.0,0.0,56,0.00,,,0.00,meteobridge,2017-04-30 10:30:00,
2017-04-30 06:36:00,57.4,41.9,30.18,NNE,32,0.0,0.0,56,0.00,,,0.00,meteobridge,2017-04-30 10:36:00,
2017-04-30 06:41:00,57.4,42.3,30.18,NNE,33,0.0,0.0,57,0.00,,,0.00,meteobridge,2017-04-30 10:41:00,
2017-04-30 06:46:00,57.4,42.3,30.19,NNE,33,0.0,0.0,57,0.00,,,0.00,meteobridge,2017-04-30 10:46:00,
2017-04-30 06:51:00,57.4,42.3,30.19,NNE,33,0.0,0.0,57,0.00,,,0.00,meteobridge,2017-04-30 10:51:00,
2017-04-30 06:56:00,57.6,41.9,30.19,NE,34,0.0,0.0,56,0.00,,,0.00,meteobridge,2017-04-30 10:56:00,
2017-04-30 07:01:00,57.7,42.1,30.19,NE,34,0.0,0.0,56,0.00,,,0.00,meteobridge,2017-04-30 11:01:00,
2017-04-30 07:06:00,57.9,42.3,30.19,NE,34,0.0,0.0,56,0.00,,,0.00,meteobridge,2017-04-30 11:06:00,
2017-04-30 07:12:00,57.9,42.3,30.19,NNE,33,0.0,0.0,56,0.00,,,0.00,meteobridge,2017-04-30 11:12:00,
2017-04-30 07:17:00,58.1,42.4,30.20,NNE,33,0.0,0.0,56,0.00,,,0.00,meteobridge,2017-04-30 11:17:00,
2017-04-30 07:22:00,58.5,42.4,30.20,NE,34,0.0,0.0,55,0.00,,,0.00,meteobridge,2017-04-30 11:22:00,
2017-04-30 07:27:00,58.8,42.6,30.19,NE,34,0.0,0.0,55,0.00,,,0.00,meteobridge,2017-04-30 11:27:00,
2017-04-30 07:33:00,59.4,42.8,30.19,NE,35,0.0,0.0,54,0.00,,,0.00,meteobridge,2017-04-30 11:33:00,
2017-04-30 07:38:00,60.3,43.5,30.20,NE,36,0.0,0.0,54,0.00,,,0.00,meteobridge,2017-04-30 11:38:00,
2017-04-30 07:43:00,60.3,43.0,30.20,NE,36,0.0,0.0,53,0.00,,,0.00,meteobridge,2017-04-30 11:43:00,
2017-04-30 07:49:00,59.9,42.8,30.20,NE,36,0.0,0.0,53,0.00,,,0.00,meteobridge,2017-04-30 11:49:00,
2017-04-30 07:54:00,59.7,43.0,30.19,NE,35,0.0,0.0,54,0.00,,,0.00,meteobridge,2017-04-30 11:54:00,
2017-04-30 07:59:00,60.3,43.0,30.20,NE,36,0.0,0.0,53,0.00,,,0.00,meteobridge,2017-04-30 11:59:00,
2017-04-30 08:04:00,59.9,42.3,30.20,NNE,28,0.0,0.0,52,0.00,,,0.00,meteobridge,2017-04-30 12:04:00,
2017-04-30 08:09:00,59.5,42.4,30.21,NE,36,0.0,0.0,53,0.00,,,0.00,meteobridge,2017-04-30 12:09:00,
2017-04-30 08:14:00,59.4,42.3,30.21,NE,35,0.0,0.0,53,0.00,,,0.00,meteobridge,2017-04-30 12:14:00,
2017-04-30 08:19:00,59.5,42.8,30.21,NE,36,0.0,0.0,54,0.00,,,0.00,meteobridge,2017-04-30 12:19:00,